User: anonymous   Login
Location: Antioch Baptist Church
(32.6696°N, 85.7327°W)
Time: 21:05:45
(UTC+00:00)
Language:

Cosmos 2322 - Orbit

View from above orbital plane
View from above orbital plane
View from above satellite
View from above satellite

Ground track
Ground track

The orbit data is extracted from the following two-line orbital elements,

1 23704U 95058A   20272.48419463 +.00000193 +00000-0 +12796-3 0  9996
2 23704 070.9880 049.9903 0007724 072.9459 287.2508 14.13431964285092
Epoch (UTC): 28 September 2020 11:37:14
Eccentricity: 0.0007724
inclination: 70.9880°
perigee height: 842 km
apogee height: 853 km
right ascension of ascending node: 49.9903°
argument of perigee: 72.9459°
revolutions per day: 14.13431964
mean anomaly at epoch: 287.2508°
orbit number at epoch: 28509

The dashed part of the orbit path shows where the satellite is in the earth's shadow,  

DLR